Tracking 32954 objects as of 19-Jan-2026
HD Live streaming from Space Station
objects crossing your sky now

STARLINK-4133

Track STARLINK-4133 now!
10-day predictions
STARLINK-4133 is classified as:


NORAD ID: 53253
Int'l Code: 2022-086M
Perigee: 545.9 km
Apogee: 547.9 km
Inclination: 53.2 °
Period: 95.4 minutes
Semi major axis: 6917 km
RCS: Unknown
Launch date: July 24, 2022
Source: United States (US)
Launch site: AIR FORCE EASTERN TEST RANGE (AFETR)
Your satellite tracking list
Your tracking list is empty




NASA's NSSDC Master Catalog

Two Line Element Set (TLE):
1 53253U 22086M   26019.48220922  .00000500  00000-0  49468-4 0  9993
2 53253  53.2176  55.0231 0001440  79.0385 281.0769 15.08846725193632
Source of the keplerian elements: AFSPC